This demonstration page uses our WeatherBlox Daily Observations layout. Learn more.

Left ArrowRight Arrow

39.01783, -85.05884

Hourly Observations for September 15, 2021

Temp ( °F °C ) Dew Point ( °F °C ) Humidity (%) Winds ( mph kmh ) Pressure ( in mb ) Visibility ( mi km ) Precip ( " mm )
12:52 am 00:52 Mostly Cloudy 74 23.3 67 19.4 79 79 SSW 7 11 29.88 1012 10 16 N/A
1:52 am 01:52 Cloudy 75 23.9 67 19.4 76 76 SW 6 9 29.89 1012 10 16 N/A
2:49 am 02:49 Cloudy 75 24 66 19 74 74 NW 7 11 29.88 1012 10 16 N/A
2:52 am 02:52 Cloudy 75 23.9 66 18.9 74 74 NW 6 9 29.87 1012 10 16 N/A
3:52 am 03:52 Cloudy 72 22.2 65 18.3 79 79 N N/A 29.87 1012 10 16 0.00 0.00
4:52 am 04:52 Cloudy 72 22.2 63 17.2 73 73 N 7 11 29.88 1012 10 16 N/A
5:52 am 05:52 Mostly Cloudy 71 21.7 62 16.7 73 73 NNE 6 9 29.88 1012 10 16 0.00 0.00
6:52 am 06:52 Mostly Cloudy 68 20 64 17.8 87 87 N N/A 29.89 1012 10 16 N/A
7:41 am 07:41 Mostly Cloudy 69 20.6 65 18.3 87 87 N N/A 29.91 1013 10 16 N/A
7:52 am 07:52 Mostly Cloudy 69 20.6 65 18.3 87 87 SSW 3 6 29.90 1013 10 16 N/A
8:52 am 08:52 Mostly Cloudy 73 22.8 66 18.9 79 79 S 9 15 29.91 1013 10 16 N/A
9:52 am 09:52 Cloudy with Light Rain 73 22.8 66 18.9 79 79 N N/A 29.94 1014 10 16 0.00 0.00
10:26 am 10:26 Cloudy 73 22.8 66 18.9 79 79 NW 6 9 29.96 1015 10 16 0.00 0.00
10:52 am 10:52 Cloudy 73 22.8 66 18.9 79 79 N 7 11 29.97 1015 10 16 0.00 0.00
11:52 am 11:52 Cloudy 77 25 65 18.3 66 66 N N/A 29.96 1015 10 16 N/A
12:15 pm 12:15 Cloudy 75 23.9 65 18.3 71 71 NNW 9 15 29.96 1014 10 16 N/A
12:52 pm 12:52 Cloudy 74 23.3 66 18.9 76 76 NE 7 11 29.94 1014 10 16 N/A
1:06 pm 13:06 Cloudy 75 23.9 65 18.3 71 71 E 3 6 29.94 1014 10 16 N/A
1:52 pm 13:52 Cloudy 75 23.9 66 18.9 74 74 NNW 6 9 29.97 1015 10 16 N/A
2:11 pm 14:11 Cloudy 77 25 67 19.4 71 71 NNW 7 11 29.95 1014 10 16 N/A
2:39 pm 14:39 Mostly Cloudy 76 24.4 66 18.9 72 72 VRB 5 7 29.95 1014 10 16 N/A
2:52 pm 14:52 Mostly Cloudy 78 25.6 66 18.9 67 67 N 10 17 29.95 1014 10 16 N/A
3:52 pm 15:52 Cloudy with Rain 72 22.2 67 19.4 84 84 NNW 10 17 29.96 1015 7 11 0.02 0.51
4:52 pm 16:52 Mostly Cloudy 75 23.9 65 18.3 71 71 N 13 20 29.94 1014 10 16 0.02 0.51
5:52 pm 17:52 Mostly Cloudy 77 25 63 17.2 62 62 NNE 12 19 29.95 1014 10 16 N/A
6:52 pm 18:52 Mostly Cloudy 75 23.9 61 16.1 62 62 N 8 13 29.98 1015 10 16 N/A
7:52 pm 19:52 Partly Cloudy 72 22.2 59 15 64 64 N 7 11 29.98 1015 10 16 N/A
8:52 pm 20:52 Mostly Clear 70 21.1 59 15 68 68 N 6 9 29.99 1016 10 16 N/A
9:52 pm 21:52 Clear 69 20.6 58 14.4 68 68 NNE 6 9 30.02 1017 10 16 N/A
10:52 pm 22:52 Clear 69 20.6 58 14.4 68 68 NE 7 11 30.03 1017 10 16 N/A
11:52 pm 23:52 Clear 69 20.6 58 14.4 68 68 ENE 8 13 30.03 1017 10 16 N/A

Powered by AerisWeather